User: anonymous   Login
Location: Pine Mountain Observatory
(43.7910°N, 120.9377°W)
Time: 13:44:32
(UTC-07:00)
Language:

Cosmos 1867 - Orbit

View from above orbital plane
View from above orbital plane
View from above satellite
View from above satellite

Ground track
Ground track

The orbit data is extracted from the following two-line orbital elements,

1 18187U 87060A   16270.14710427 -.00000055  00000-0  17129-4 0  9993
2 18187  65.0095 247.7420 0019839 261.3876  98.4961 14.31078720526217
Epoch (UTC): 26 September 2016 03:31:49
Eccentricity: 0.0019839
inclination: 65.0095°
perigee height: 774 km
apogee height: 802 km
right ascension of ascending node: 247.7420°
argument of perigee: 261.3876°
revolutions per day: 14.31078720
mean anomaly at epoch: 98.4961°
orbit number at epoch: 52621

The dashed part of the orbit path shows where the satellite is in the earth's shadow,  

DLR